Simultaneous Nadir Overpasses (SNOs) Predictions

Prediction of SNOs between NOAA-15 and METOP-C Satellite Orbit:

Table of predicted SNOs for the next 14.0 days since TLE Epoch: 6/24/2023
Index Date (NOAA-15) Time (NOAA-15) Lat,Lon (NOAA-15) SZA (NOAA-15 ) Date (METOP-C) Time (METOP-C) Lat,Lon (METOP-C) SZA (METOP-C ) Distance(km) Time Diff (sec)
1 06/26/2023 22:11:29 81.08,-114.31 59.70 06/26/2023 22:10:19 81.09,-114.36 59.68 1.83 70
2 06/26/2023 23:02:01 -81.08, 52.89 120.31 06/26/2023 23:01:01 -81.09, 52.92 120.33 0.73 60
3 06/26/2023 23:52:31 81.09,-139.95 59.68 06/26/2023 23:51:41 81.09,-139.85 59.66 1.99 50
4 06/27/2023 00:43:02 -81.09, 27.61 120.31 06/27/2023 00:42:23 -81.08, 27.42 120.35 3.30 39
5 06/27/2023 01:33:30 81.08,-164.86 59.71 06/27/2023 01:33:01 81.09,-164.98 59.69 2.63 29
6 06/27/2023 02:24:02 -81.09, 2.33 120.31 06/27/2023 02:23:43 -81.09, 2.30 120.32 0.85 19
7 06/27/2023 03:14:32 81.10, 169.49 59.68 06/27/2023 03:14:23 81.09, 169.52 59.67 1.08 9
8 06/27/2023 04:05:03 -81.09, -22.95 120.31 06/27/2023 04:05:04 -81.10, -22.83 120.29 2.47 1
9 06/27/2023 04:55:33 81.10, 144.22 59.68 06/27/2023 04:55:44 81.10, 144.40 59.70 3.10 11
10 06/27/2023 05:46:04 -81.09, -48.23 120.31 06/27/2023 05:46:26 -81.09, -48.32 120.30 1.75 22
11 06/27/2023 06:36:34 81.10, 118.94 59.68 06/27/2023 06:37:06 81.09, 118.90 59.69 1.18 32
12 06/27/2023 07:27:05 -81.09, -73.51 120.31 06/27/2023 07:27:47 -81.10, -73.45 120.27 1.69 42
13 06/27/2023 08:17:35 81.10, 93.66 59.68 06/27/2023 08:18:27 81.10, 93.77 59.72 1.88 52
14 06/27/2023 09:08:06 -81.09, -98.79 120.31 06/27/2023 09:09:09 -81.10, -98.95 120.29 2.75 63



Historial Predications of SNOs between NOAA-15 and METOP-C
